Theta_e
315 314 313 313 312 312 311 310 310 310 311 312 313 313 313 313 313 308 301 303 299 294 295 299 301 295 295 294 289 292 291 293 292 289 289 289 289 291 290 293 295 296 295 296 300 299 297 314 317 310 314 309 314 321
315 314 314 313 312 311 311 310 310 309 310 311 312 313 313 313 313 310 297 304 305 296 297 302 304 305 303 301 296 293 291 292 293 289 290 290 289 290 289 288 295 293 294 293 297 301 311 309 304 304 306 306 308 321
314 314 314 313 312 311 310 310 309 309 310 311 312 312 313 313 312 310 300 300 299 296 297 295 297 302 304 304 303 293 294 296 294 295 291 290 287 290 286 289 291 294 295 291 294 300 302 301 303 304 305 307 315 325
315 314 314 313 312 310 310 310 309 309 310 311 312 312 312 312 312 311 300 301 299 297 291 294 304 299 305 301 302 300 299 297 294 294 291 289 288 292 288 290 289 293 294 291 291 296 299 301 302 304 307 309 312 317
314 314 313 313 312 311 310 309 309 309 309 311 311 312 312 312 312 308 303 303 303 300 290 293 299 300 300 299 301 302 298 295 293 291 290 289 291 291 292 291 290 294 292 290 292 296 296 297 303 305 306 307 311 312
314 313 313 313 312 310 310 309 309 309 310 311 311 311 311 312 311 301 298 304 302 301 292 287 294 297 300 302 301 300 299 296 296 293 291 292 295 293 288 287 293 295 297 299 297 301 302 303 304 305 305 307 309 311
314 313 313 312 312 310 310 309 309 309 310 311 311 311 311 311 304 296 296 303 306 301 293 288 289 297 302 300 300 301 301 300 299 296 295 295 295 296 291 291 296 300 302 304 306 306 304 306 306 310 306 308 310 312
314 313 312 312 311 310 310 310 309 310 311 311 311 311 311 311 308 302 303 308 304 297 295 288 289 293 299 297 296 299 296 296 296 295 296 295 296 296 291 294 298 300 301 302 303 305 305 306 309 311 313 308 308 315
314 313 312 312 311 310 310 309 310 310 311 311 311 311 307 303 299 302 313 309 302 299 291 292 286 288 300 297 299 298 297 292 297 293 294 297 293 290 294 295 297 299 298 299 302 303 304 304 307 310 314 315 313 313
313 312 312 311 311 310 309 309 310 310 310 311 306 301 298 304 315 311 303 298 298 299 295 292 293 289 295 295 295 293 294 290 288 293 299 295 293 296 298 298 299 300 300 302 299 299 300 301 303 307 311 313 315 311
313 312 311 311 310 309 309 310 309 310 309 303 299 300 305 315 304 299 294 294 294 291 292 292 292 290 298 294 293 294 292 292 288 292 294 293 291 297 300 299 300 300 301 303 304 303 304 304 304 307 310 314 317 319
313 312 311 310 310 309 309 310 309 306 304 303 301 304 303 300 295 293 292 294 293 291 293 292 294 295 297 300 294 296 291 292 286 295 293 291 294 298 300 301 302 301 303 305 307 306 307 307 307 308 309 312 316 318
312 311 310 310 309 309 309 309 309 309 307 304 299 297 294 293 285 288 287 290 292 297 297 297 295 299 299 300 294 294 291 290 298 292 291 292 297 299 300 302 304 305 305 306 308 308 308 309 309 309 310 314 316 317
311 310 309 309 309 309 308 309 309 308 302 296 294 286 290 289 291 291 291 293 297 299 299 299 296 294 299 295 293 288 293 295 290 289 290 294 299 300 305 304 304 304 306 307 307 308 308 308 309 309 311 314 316 315
310 309 309 308 308 308 308 309 310 305 299 294 295 286 290 294 295 296 297 297 299 301 300 297 296 294 294 291 293 293 291 290 290 288 292 297 300 302 301 302 304 305 306 307 308 308 308 309 310 310 311 313 316 319
309 308 306 308 308 308 309 309 305 302 299 296 295 292 294 292 293 295 297 296 301 301 299 296 292 290 290 290 291 289 291 288 288 297 298 300 300 301 302 304 305 307 307 308 308 309 310 310 310 310 311 313 315 318
307 303 308 308 308 309 308 303 300 296 295 295 293 296 295 294 293 295 296 299 302 298 294 294 291 290 293 290 291 293 290 293 297 299 300 300 301 304 306 306 306 307 308 308 308 308 309 311 312 310 309 312 315 319
303 306 308 308 308 306 302 301 298 296 292 294 291 292 294 296 296 297 299 301 299 297 295 292 294 288 287 287 288 291 294 296 297 298 300 304 303 305 307 307 308 309 309 309 309 309 311 311 310 310 313 315 318 324
305 306 308 309 306 301 295 297 299 293 294 294 295 296 296 296 298 300 301 301 300 300 297 293 290 288 288 291 293 295 296 297 299 302 303 304 304 306 308 309 310 309 309 309 309 309 311 312 311 313 316 321 326 328
308 307 308 309 308 299 296 295 300 294 292 294 295 294 295 296 299 299 298 299 298 297 294 291 291 294 294 296 297 298 299 300 301 301 303 305 307 307 308 309 309 310 310 310 311 308 312 314 314 316 318 323 327 325
307 307 309 306 301 301 298 297 295 295 295 293 296 295 295 298 296 296 296 299 298 294 292 295 296 298 300 303 302 302 304 304 303 303 304 304 308 308 309 310 311 310 309 309 310 310 311 316 318 319 324 326 325 327
304 308 302 303 299 300 296 298 295 296 295 294 294 295 294 293 294 296 300 296 294 296 301 302 302 301 301 301 303 304 305 305 306 307 305 306 306 307 309 310 310 309 310 310 311 311 315 320 324 323 325 325 319 325
306 304 300 299 295 292 291 297 294 295 291 294 295 292 292 296 299 301 295 296 298 303 305 305 304 302 302 305 305 306 305 305 305 307 307 308 309 310 310 311 311 310 309 310 313 314 316 314 319 323 327 323 323 323
307 299 295 294 293 288 294 293 296 294 296 293 293 292 295 297 302 297 292 294 298 300 302 302 305 303 304 304 303 304 307 307 306 307 308 308 308 309 311 311 312 312 312 313 314 315 319 321 317 327 326 326 326 327
292 292 293 288 295 291 292 292 293 293 292 294 294 292 296 300 295 293 290 294 297 299 301 303 305 306 301 303 305 306 309 306 305 305 308 309 310 311 310 311 312 312 314 313 312 314 319 325 323 327 325 326 326 327
285 291 289 291 290 289 290 291 290 291 291 290 292 296 299 294 293 291 296 297 299 300 301 303 302 302 303 303 303 305 307 310 311 309 310 310 311 309 308 307 307 310 316 315 313 314 317 324 322 324 324 319 312 330
286 289 292 295 294 293 292 294 296 293 293 293 293 294 294 292 294 296 301 303 302 304 306 306 306 304 304 306 307 311 311 311 310 311 312 312 313 312 311 308 308 312 314 315 313 314 320 325 326 325 326 329 329 330
292 293 290 293 292 296 293 291 292 291 292 294 295 295 296 296 295 301 306 309 307 306 307 308 308 308 307 308 308 308 310 310 311 311 311 311 311 312 312 313 315 305 312 314 313 327 326 324 326 326 327 326 324 326
292 294 294 292 293 293 293 292 293 295 298 300 295 295 299 303 306 303 306 310 310 305 304 304 306 308 307 308 309 308 308 307 305 302 302 303 304 307 311 313 316 315 316 317 305 306 316 322 324 324 324 324 323 323
292 295 292 293 292 291 294 295 296 299 303 304 302 302 302 303 305 307 308 307 304 302 303 305 309 303 302 304 304 304 306 306 306 305 302 302 304 307 310 311 314 315 315 315 316 317 309 317 314 321 321 322 321 320
295 295 294 294 294 296 298 301 302 303 304 302 303 301 300 305 307 310 311 309 305 303 302 301 302 303 303 302 301 300 300 305 307 308 306 304 306 307 309 311 315 315 315 314 313 315 315 316 315 315 315 315 314 314
295 295 294 294 297 301 302 299 300 298 298 298 299 302 303 301 301 305 307 304 302 301 304 302 302 304 307 307 306 304 300 308 306 305 304 305 306 307 311 313 316 315 314 313 313 313 313 313 313 313 313 313 313 313
296 296 297 297 296 297 299 299 297 297 297 297 298 299 300 299 297 303 309 308 306 305 304 303 304 306 308 306 306 306 302 304 303 297 297 297 296 298 309 311 315 315 313 312 312 313 313 313 313 313 312 311 311 311
Wind_Speed
13 12 11 10 9 9 10 11 12 13 14 15 17 18 19 19 19 8 5 4 3 2 7 4 1 1 4 2 3 5 6 7 5 7 4 3 4 2 3 5 6 2 2 3 4 3 1 22 10 12 6 15 21 18
15 13 12 11 8 8 9 11 11 11 12 13 14 16 17 16 16 12 3 5 3 3 8 5 14 17 14 15 4 2 6 4 4 4 4 3 3 3 1 5 6 4 5 3 2 2 4 6 4 5 10 14 17 12
16 15 13 12 10 8 7 10 11 12 12 12 12 13 15 15 14 9 4 4 3 3 6 3 2 6 7 5 7 2 3 4 2 5 4 2 2 3 1 5 6 7 3 3 6 5 9 13 8 15 16 14 20 13
18 16 15 13 12 9 7 9 11 11 12 12 12 12 14 15 14 12 2 2 1 3 2 8 4 7 12 5 6 7 7 2 2 4 3 3 2 3 4 4 0 6 6 3 7 8 14 2 9 14 19 17 19 18
20 18 16 15 13 12 10 8 10 11 12 12 11 12 14 15 15 10 4 3 3 2 3 7 13 7 9 4 6 7 4 4 2 0 2 4 4 2 4 1 8 4 6 3 8 8 11 11 15 15 14 18 18 22
21 20 17 15 14 12 12 9 10 11 12 12 11 12 13 13 13 3 3 1 2 3 2 5 6 7 9 7 4 4 3 2 3 5 4 4 6 5 4 5 5 2 6 11 14 10 17 16 17 13 8 17 18 18
22 21 20 18 16 14 12 11 10 10 11 12 11 11 11 10 1 2 4 4 3 4 2 5 6 7 7 3 3 3 3 1 4 3 3 5 4 6 4 12 5 5 7 12 8 14 10 7 11 20 11 11 16 16
23 23 21 20 18 16 13 11 11 11 10 10 10 11 11 12 8 5 4 12 4 2 1 2 6 6 3 2 3 3 3 3 3 3 3 3 2 4 5 2 4 3 8 10 14 13 13 18 15 15 13 10 15 10
23 24 23 21 19 16 14 12 10 10 9 9 10 14 3 1 2 4 2 8 1 3 2 3 2 4 6 3 2 5 3 3 4 2 3 3 2 5 5 4 0 2 2 9 13 17 19 18 14 13 13 13 13 12
24 24 24 23 21 17 14 11 9 7 8 8 3 1 2 3 7 4 4 2 2 2 1 3 2 4 1 2 2 3 3 2 3 5 3 3 5 2 6 7 6 7 5 10 17 16 15 17 16 13 13 14 11 14
24 25 25 24 21 18 15 11 7 4 4 2 2 2 2 2 2 1 3 3 2 3 3 5 5 3 3 2 2 1 1 2 3 4 2 4 4 5 6 7 8 7 6 11 15 17 17 18 18 16 16 15 8 7
23 25 25 23 22 18 15 11 8 3 1 3 2 4 2 1 2 3 4 3 4 5 4 4 5 6 4 3 4 1 1 1 5 4 3 4 5 4 8 11 11 8 9 14 16 17 19 20 18 18 18 17 12 6
23 25 25 23 21 19 16 12 9 3 2 0 2 2 3 3 0 5 5 5 4 4 5 4 3 4 2 3 3 2 4 5 2 2 5 5 4 5 9 10 13 12 12 16 18 17 18 21 19 19 18 15 16 7
24 25 24 23 21 20 16 12 9 5 2 3 4 3 5 5 6 7 5 3 5 3 4 4 2 2 3 3 3 3 4 1 4 5 6 4 5 8 8 9 9 14 15 17 19 19 19 19 17 17 18 14 18 12
25 25 23 22 22 20 16 12 11 2 3 4 4 5 7 6 5 3 5 4 6 2 1 2 2 2 2 4 3 1 4 6 6 6 4 5 7 8 9 9 11 13 14 15 17 18 18 18 15 17 18 15 17 11
25 21 8 21 21 19 15 11 3 2 2 3 5 4 4 3 6 6 8 9 7 4 1 2 1 1 4 4 4 8 5 6 5 4 5 5 7 8 10 11 12 13 15 15 15 17 18 18 16 16 15 16 14 14
17 3 22 23 20 16 15 4 3 4 4 5 5 5 7 7 8 7 3 6 2 4 4 3 5 9 2 3 5 6 6 5 5 6 6 7 9 11 13 14 13 15 15 17 17 18 19 17 14 12 14 14 13 12
3 14 28 24 15 11 2 0 3 4 7 5 5 4 3 4 6 8 5 6 1 4 4 5 3 3 6 5 6 5 6 7 5 5 5 9 8 11 12 14 16 16 16 18 20 19 18 14 11 9 12 12 9 11
13 16 25 24 10 5 5 4 3 4 8 4 5 5 5 5 6 9 7 3 3 3 5 2 4 4 5 5 6 8 8 5 7 9 10 9 9 13 15 15 16 16 15 19 19 15 12 12 10 8 5 8 10 7
18 23 23 21 8 2 4 3 3 4 4 4 3 3 4 5 4 3 3 2 4 3 2 4 6 6 6 7 6 8 7 5 6 11 11 11 11 13 13 13 11 14 15 18 16 12 10 7 6 6 7 11 7 5
12 12 22 8 1 2 2 2 3 4 4 3 3 2 5 2 2 3 4 2 2 4 4 5 5 5 7 8 5 5 10 9 9 8 13 13 11 9 11 10 12 13 14 13 11 10 8 6 6 7 5 3 4 5
5 10 4 1 1 3 3 4 3 3 2 4 4 3 3 3 4 4 2 1 4 5 4 3 4 5 7 9 9 9 11 10 12 9 11 11 9 10 10 11 12 14 13 11 9 8 6 5 6 2 2 3 5 3
9 5 3 4 3 2 6 0 2 3 3 4 3 3 3 3 2 2 1 3 4 4 3 3 5 6 8 11 10 9 7 7 6 7 8 8 9 9 10 12 12 13 13 11 8 7 6 8 6 6 4 5 5 4
7 5 5 6 5 4 3 4 4 3 3 2 2 3 3 2 1 1 2 3 4 3 2 5 3 5 5 6 4 5 7 4 5 7 7 7 9 10 10 12 13 12 11 10 7 6 6 7 8 7 6 8 6 5
4 4 4 4 4 3 3 4 4 3 4 4 3 3 3 1 1 2 3 4 2 3 3 4 4 4 3 4 5 6 7 4 6 9 10 7 8 8 10 10 11 11 10 8 7 6 6 4 5 3 10 11 12 10
2 4 6 7 4 4 4 2 5 6 4 3 4 4 1 2 3 4 3 4 3 3 4 4 3 3 5 3 4 6 8 7 6 7 9 4 7 9 11 13 13 12 7 6 6 6 6 5 6 6 5 11 14 13
2 5 5 4 3 3 3 3 2 1 4 4 3 2 2 3 4 4 3 3 4 5 4 5 4 3 4 5 5 6 7 7 5 6 7 5 6 8 9 11 14 11 13 12 8 6 6 3 5 8 7 9 8 9
4 4 6 5 4 3 3 2 3 3 3 3 2 2 1 3 3 4 4 3 5 3 3 4 3 4 4 4 4 5 6 7 7 6 5 4 5 7 11 10 10 16 11 10 6 5 4 5 9 8 12 12 10 8
4 4 2 4 4 3 3 4 4 3 3 3 4 3 3 4 3 3 1 3 3 3 2 2 3 1 2 3 3 4 4 4 9 16 17 11 12 11 12 10 10 10 10 8 19 12 9 10 12 13 14 11 12 12
6 5 3 4 4 5 5 5 4 3 3 3 3 4 4 3 2 2 4 1 1 1 2 2 2 2 1 3 3 5 3 3 3 4 6 9 10 12 10 11 10 11 10 12 10 8 10 15 16 15 15 12 11 14
4 3 5 5 4 5 6 5 4 4 5 5 5 5 7 3 2 3 2 2 2 1 3 3 3 3 1 3 2 3 5 3 5 5 5 5 7 10 10 10 9 9 9 14 15 12 13 13 11 18 19 16 15 20
3 4 3 1 3 7 6 3 2 3 3 2 3 2 4 4 3 4 3 2 2 2 3 3 4 5 4 2 3 3 2 1 3 4 6 6 7 11 10 9 8 9 10 11 16 18 19 17 14 16 18 21 18 22
3 3 4 3 3 3 4 2 1 3 3 2 2 0 0 3 2 3 3 1 1 3 2 4 3 4 6 4 5 2 1 2 1 2 2 6 9 9 8 7 7 8 12 12 14 18 22 26 22 22 23 23 19 18
Wind_Direction
236 240 254 267 282 298 310 322 332 338 344 348 350 350 356 1 2 8 279 18 62 292 278 255 43 45 340 193 175 286 6 352 2 42 42 318 35 337 344 275 326 43 342 339 340 185 289 351 23 52 306 319 321 342
229 231 238 249 260 283 299 306 315 323 332 339 346 343 346 355 0 4 326 319 320 184 247 239 266 254 212 214 153 285 179 223 222 61 18 4 355 347 338 291 343 44 122 245 111 244 165 25 76 1 337 323 327 324
223 223 226 238 241 245 273 290 303 310 318 327 335 339 337 341 350 1 279 294 351 319 302 2 264 299 78 180 187 160 295 215 354 165 169 209 278 108 293 269 323 341 40 2 359 307 346 340 357 343 339 327 329 340
217 218 217 226 238 244 245 272 288 298 306 315 326 333 331 333 334 339 280 256 192 270 281 282 331 315 301 277 215 190 215 290 172 112 146 176 167 173 228 236 40 242 340 289 259 295 317 173 344 337 325 336 334 319
210 212 212 216 221 231 245 250 272 286 296 306 320 328 326 329 328 314 215 234 221 200 255 285 313 274 289 276 279 248 214 183 174 45 157 214 210 141 241 52 253 190 254 294 286 282 273 294 319 321 320 323 337 331
206 204 205 211 215 225 238 247 262 278 289 300 313 321 319 322 337 344 359 321 48 42 31 309 287 292 301 297 311 283 239 198 137 156 218 231 225 130 200 217 273 196 281 290 286 271 288 292 300 305 296 309 317 316
205 196 197 201 205 216 230 240 251 267 284 294 305 307 305 300 340 211 227 257 331 19 37 310 310 282 288 305 5 32 11 263 160 218 214 204 221 172 202 254 32 16 343 322 13 357 326 343 321 313 278 287 301 303
205 194 191 192 201 207 216 229 248 260 276 289 297 294 288 284 278 276 244 246 184 155 82 287 279 314 312 16 9 2 4 354 311 238 328 214 296 159 223 201 225 7 347 344 320 310 279 293 304 308 327 291 289 303
207 193 186 187 193 202 210 219 239 264 283 292 295 295 296 161 241 248 63 114 87 134 220 202 249 270 346 3 35 5 41 358 310 300 269 63 261 226 170 194 250 302 266 295 301 293 296 289 291 307 317 313 294 298
206 195 184 181 186 192 202 213 233 256 275 289 295 247 270 225 119 81 10 28 357 312 326 244 266 268 22 356 26 31 25 312 320 261 287 209 245 251 191 200 208 238 301 313 311 298 292 290 290 291 287 285 293 277
205 193 183 178 181 186 190 199 206 263 283 140 216 229 309 141 47 212 242 193 148 244 216 231 217 239 296 146 176 85 41 325 290 281 1 289 283 233 195 232 238 245 254 280 293 278 276 274 279 282 279 277 273 289
201 191 180 173 175 176 179 181 179 154 203 188 239 284 293 215 236 237 230 206 199 232 194 200 217 198 253 107 106 168 178 194 252 315 315 251 257 231 213 243 254 247 258 287 295 288 287 282 269 268 271 273 273 271
192 182 173 168 170 167 171 176 183 210 336 330 165 252 152 252 226 213 222 219 207 211 183 206 244 180 95 86 71 143 218 226 329 237 238 228 235 242 240 251 255 253 264 274 282 275 279 279 270 265 271 268 269 241
180 171 165 164 164 159 165 177 184 152 122 178 177 247 204 212 226 202 217 231 233 198 187 182 250 183 168 107 132 181 228 352 243 237 222 230 243 256 252 246 249 258 264 274 278 284 279 276 274 272 266 269 271 261
167 161 161 160 158 157 172 179 164 124 164 218 191 227 226 232 268 262 241 252 256 246 164 330 262 148 171 118 187 170 232 234 227 238 224 238 255 257 264 260 259 260 270 273 282 283 278 277 270 268 267 269 267 264
143 139 156 161 157 162 172 141 123 135 252 233 237 245 260 286 264 254 251 247 244 223 114 65 248 22 230 165 171 212 232 227 248 228 246 274 270 261 263 275 266 262 263 270 284 285 283 278 265 266 271 269 276 273
135 138 155 156 163 162 145 116 139 193 228 230 236 217 253 280 266 271 258 287 187 127 196 156 185 221 207 222 216 202 221 224 252 274 267 261 261 285 289 287 267 270 271 276 281 284 285 278 261 254 259 263 262 262
95 142 149 159 153 126 32 165 186 214 237 243 247 224 219 245 280 281 276 261 138 152 129 204 177 217 220 228 246 259 280 289 251 272 273 281 271 282 283 275 281 285 284 284 288 290 291 276 266 269 261 255 253 249
133 146 154 160 157 123 148 198 195 248 231 237 241 245 236 247 239 249 260 249 190 159 118 87 248 221 235 240 255 275 280 262 278 287 291 281 270 281 282 285 287 293 288 286 290 286 283 276 259 248 271 254 231 196
138 155 164 167 185 138 160 221 184 239 261 246 268 237 205 226 236 236 238 241 164 144 152 208 218 239 244 258 247 264 267 254 281 297 297 293 292 290 281 285 287 292 292 290 288 275 281 269 255 245 240 249 213 183
113 161 165 146 342 248 247 203 206 224 254 247 280 240 252 249 249 253 253 189 126 185 225 224 241 253 255 269 263 254 274 284 275 275 284 292 294 280 288 285 287 291 288 293 293 292 284 276 249 221 251 269 181 187
100 121 96 250 215 267 242 227 207 265 245 248 293 206 253 253 248 241 202 138 224 233 220 234 253 267 280 278 270 267 267 270 274 273 273 279 291 300 300 295 293 297 303 300 296 293 296 289 317 279 226 206 212 116
141 114 105 159 225 198 258 154 207 231 232 255 328 285 268 256 228 74 300 225 238 227 219 242 262 268 265 279 278 277 265 267 276 283 284 281 282 286 287 291 294 297 302 307 309 286 268 272 277 249 174 167 131 140
113 141 171 188 184 237 231 209 213 240 260 256 248 259 250 231 246 135 232 251 249 284 309 295 285 297 299 301 300 293 300 267 276 288 286 281 290 297 298 295 298 301 300 294 293 299 263 257 250 241 132 145 166 153
119 232 146 214 206 216 238 206 206 218 235 219 222 281 262 120 220 225 225 263 249 256 270 282 277 262 280 286 303 301 302 285 292 301 299 287 286 294 297 301 302 297 296 300 308 302 281 228 271 176 137 149 157 155
186 223 169 186 203 199 230 199 206 213 207 218 235 255 75 141 207 231 230 225 233 234 227 227 257 304 303 275 300 310 313 314 314 313 309 301 307 311 312 315 312 319 330 307 306 289 296 237 247 237 155 130 144 159
242 244 212 224 203 197 260 219 157 184 233 218 231 248 200 229 226 242 255 230 218 241 218 202 234 248 268 295 297 306 312 309 294 307 304 303 313 320 315 321 324 319 319 326 316 240 237 219 139 129 116 109 131 135
249 266 198 210 201 220 236 214 196 226 226 239 108 245 250 263 235 240 210 214 213 263 184 218 220 237 275 296 303 321 330 332 318 312 304 302 340 341 342 328 319 320 322 325 318 58 96 105 132 109 101 103 99 110
245 254 158 246 203 225 179 210 215 235 215 153 187 227 226 235 219 150 267 66 318 106 149 232 273 263 316 324 331 327 319 334 356 5 3 353 342 344 338 335 344 349 355 12 48 46 58 91 96 94 86 80 90 98
246 188 241 218 207 218 230 194 235 230 211 216 193 321 319 288 218 111 103 79 88 272 271 226 200 99 356 306 285 309 310 353 5 10 345 342 330 320 338 344 349 360 3 20 48 49 54 81 85 86 90 99 95 98
243 181 199 211 208 225 231 247 248 225 224 227 208 199 258 181 64 15 114 247 215 39 48 16 327 294 273 297 308 335 326 310 327 344 346 300 327 341 345 349 360 357 11 31 39 59 72 76 84 95 92 101 107 102
226 205 186 207 46 304 319 232 257 235 247 247 242 61 348 26 145 208 277 190 315 7 318 319 299 291 247 275 267 269 209 279 296 341 4 357 9 358 358 3 6 20 30 47 49 52 62 71 76 81 90 91 92 96
188 216 217 168 153 194 305 22 195 303 334 17 355 223 55 142 170 262 286 54 58 29 19 318 333 69 103 75 26 4 142 222 236 329 5 22 22 1 1 357 5 29 48 53 59 66 58 62 66 72 75 76 72 77